Simultaneous Nadir Overpasses (SNOs) Predictions

Prediction of SNOs between NOAA-20 and LANDSAT-8 Satellite Orbit:

Table of predicted SNOs for the next 14.0 days since TLE Epoch: 1/13/2024
Index Date (NOAA-20) Time (NOAA-20) Lat,Lon (NOAA-20) SZA (NOAA-20 ) Date (LANDSAT-8) Time (LANDSAT-8) Lat,Lon (LANDSAT-8) SZA (LANDSAT-8 ) Distance(km) Time Diff (sec)
1 01/14/2024 06:32:35 -70.25,-102.03 88.37 01/14/2024 06:33:47 -70.24,-101.82 88.41 8.31 72
2 01/14/2024 07:23:18 70.09, 65.53 91.45 01/14/2024 07:23:15 70.08, 65.60 91.44 2.60 3
3 01/14/2024 08:13:59 -69.95,-126.94 88.71 01/14/2024 08:12:45 -69.97,-126.93 88.68 2.24 74
4 01/16/2024 22:49:26 -70.14, 13.92 88.97 01/16/2024 22:50:18 -70.12, 13.89 89.01 3.32 52
5 01/16/2024 23:40:09 70.03,-178.60 90.91 01/16/2024 23:39:44 70.01,-178.62 90.89 2.60 25
6 01/17/2024 00:30:35 -69.09, -9.92 90.08 01/17/2024 00:29:28 -69.13, -12.18 89.96 89.47 67
7 01/19/2024 15:06:17 -70.09, 129.77 89.55 01/19/2024 15:06:45 -70.12, 129.78 89.53 3.18 28
8 01/19/2024 15:57:01 69.98, -62.75 90.33 01/19/2024 15:56:12 70.01, -62.73 90.36 3.37 49
9 01/22/2024 06:32:30 70.30, 77.91 90.10 01/22/2024 06:33:42 70.25, 78.22 90.03 12.75 72
10 01/22/2024 07:23:09 -70.06,-114.38 90.17 01/22/2024 07:23:14 -70.04,-114.45 90.19 3.25 5
11 01/22/2024 08:13:53 69.94, 53.09 89.71 01/22/2024 08:12:41 69.92, 53.03 89.70 3.26 72
12 01/24/2024 22:49:19 70.12,-166.01 89.29 01/24/2024 22:50:11 70.13,-166.07 89.29 2.60 52
13 01/24/2024 23:40:01 -70.03, 1.45 90.82 01/24/2024 23:39:41 -70.03, 1.42 90.82 1.10 20



Historial Predications of SNOs between NOAA-20 and LANDSAT-8
